Notices

Please take our survey and provide feedback: https://eccc.sondage-survey.ca/f/LanguageSelection.aspx?s=442ca660-fcf1-47c0-95a9-59707d6fd709

Please note that the IDF dataset is available through this link: Intensity-Duration-Frequency (IDF) Files .

Hourly Data Report for November 01, 2020

SHEARWATER RCS
NOVA SCOTIA
Current Station Operator: ECCC - MSC

44°37'47.000" N
63°30'48.000" W
24.00 m
8205092
71264
AAW

Download Data

Hourly Data (November 2020)
Hourly Data Report for November 1, 2020
TIME
LST
Temp Definition
°C
Dew Point Definition
°C
Rel Hum Definition
%
Precip. Amount Definition
mm

Wind Dir Definition
10's deg

Wind Spd Definition
km/h
Visibility Definition
km
Stn Press Definition
kPa
Hmdx Definition


Wind Chill Definition


Weather Definition


00:00 1.1 -3.9 69 0.0 32 5   102.88     LegendNANA
01:00 0.3 -3.7 75 0.0 33 6   102.87     LegendNANA
02:00 0.5 -3.6 74 0.0 30 6   102.89     LegendNANA
03:00 -0.8 -3.2 83 0.0 31 3   102.84   -2 LegendNANA
04:00 -0.9 -3.4 83 0.0 26 1   102.84   -1 LegendNANA
05:00 -1.0 -3.4 84 0.0 26 3   102.83   -2 LegendNANA
06:00 0.7 -3.2 75 0.0 23 5   102.79     LegendNANA
07:00 -1.5 -3.3 88 0.0 15 2   102.75   -2 LegendNANA
08:00 4.5 -0.7 69 0.2 20 10   102.78     LegendNANA
09:00 7.1 -0.5 59 0.0 19 18   102.71     LegendNANA
10:00 7.9 -0.3 56 0.0 19 22   102.60     LegendNANA
11:00 8.2 0.3 58 0.0 20 21   102.54     LegendNANA
12:00 9.4 1.2 57 0.0 19 25   102.38     LegendNANA
13:00 10.7 2.7 57 0.0 19 20   102.22     LegendNANA
14:00 9.9 3.5 64 0.0 19 24   102.15     LegendNANA
15:00 10.1 5.1 71 0.0 17 25   101.96     LegendNANA
16:00 10.4 6.3 76 0.0 18 19   101.88     LegendNANA
17:00 11.0 7.8 81 0.0 16 20   101.72     LegendNANA
18:00 11.6 8.6 82 0.0 16 24   101.60     LegendNANA
19:00 11.6 9.3 85 0.0 14 22   101.42     LegendNANA
20:00 12.3 10.0 86 0.0 14 22   101.25     LegendNANA
21:00 12.9 10.4 85 0.0 15 27   101.05     LegendNANA
22:00 13.1 10.4 84 0.0 14 27   100.90     LegendNANA
23:00 13.1 10.6 85 0.0 15 26   100.76     LegendNANA

Notes on Data Quality.

Legend

  • E = Estimated
  • M = Missing
  • NA = Not Available*
  • [empty] = Indicates an unobserved value
Date modified: